Location: Pasarilla del Rebollar
(40.6790°N, 5.0062°W)
Time: 11:49:58
(UTC+00:00)

ATLAS 2AS CENTAUR R/B - Pass Details

Date: 22 April 2026
Orbit: 1052 x 1158 km, 63.7° (Epoch: 16 May)

Event Time Altitude Azimuth Distance (km) Brightness Sun altitude
Exits shadow 00:09:46 52° 8° (N) 1,321 3.3 -37.1°
Drops below altitude 10° 00:14:55 10° 30° (NNE) 2,896 5.5 -37.2°
Sets 00:17:34 0° 33° (NNE) 3,845 6.3 -37.2°
